User: anonymous   Login
Location: Mentone
(34.5413°N, 85.5351°W)
Time: 05:54:41
(UTC-05:00)
Language:

A-11 Canister half - Orbit

View from above orbital plane
View from above orbital plane
View from above satellite
View from above satellite

Ground track
Ground track

The orbit data is extracted from the following two-line orbital elements,

1    53U 60009E   17290.56751616 -.00000086 +00000-0 +00000-0 0  9994
2    53 047.2782 022.1709 0097614 084.4842 276.7071 12.17202490549947
Epoch (UTC): 17 October 2017 13:37:13
Eccentricity: 0.0097614
inclination: 47.2782°
perigee height: 1527 km
apogee height: 1682 km
right ascension of ascending node: 22.1709°
argument of perigee: 84.4842°
revolutions per day: 12.17202490
mean anomaly at epoch: 276.7071°
orbit number at epoch: 54994

The dashed part of the orbit path shows where the satellite is in the earth's shadow,  

DLR